Regional Weather Roundup
Issued by NWS Kansas City/Pleasant Hill, MO

Home | Current Version | Previous Version | Graphics & Text | Print | Product List | Glossary Off
Versions: 1 2 3 4 5 6 7 8 9 10 11 12 13 14 15 16 17 18 19 20 21 22 23 24 25 26 27 28 29 30 31 32 33 34 35 36 37 38 39 40 41 42 43 44 45 46 47 48 49 50

000
ASUS43 KEAX 220810
RWREAX

WEATHER ROUNDUP FOR EASTERN KANSAS AND NORTHWEST MISSOURI
NATIONAL WEATHER SERVICE KANSAS CITY/PLEASANT HILL MO
300 AM CDT MON SEP 22 2014

KSZ040-057-103>105-MOZ028-029-037-043-220900-
...KANSAS CITY METROPOLITAN AREA...

CITY           SKY/WX    TMP DP  RH WIND       PRES   REMARKS
K.C. INTL      CLEAR     52  47  83 CALM      30.27S
K.C. DOWNTOWN  CLEAR     55  51  86 CALM      30.27R
LEES SUMMIT    CLEAR     55  49  80 N3        30.27S
OLATHE - IXD   CLEAR     52  49  89 CALM      30.27S
OLATHE - OJC   CLEAR     56  49  77 CALM      30.26S
LAWRENCE       CLEAR     50  46  86 NW3       30.27S

$$

MOZ001>008-011>017-020>025-030>033-038>040-044>046-053-054-220900-
...NORTHERN AND CENTRAL MISSOURI...

CITY           SKY/WX    TMP DP  RH WIND       PRES   REMARKS
ST. JOSEPH     CLEAR     45  45 100 N3        30.28S
MOSBY          SUNNY     50  50 100 CALM      30.27S
WHITEMAN AFB   NOT AVBL
CLINTON        CLEAR     52  48  87 CALM      30.25S FOG
SEDALIA        CLEAR     54  48  80 NW5       30.25S
WARSAW         NOT AVBL
MARSHALL       CLEAR     54  52  94 W3        30.25S
CHILLICOTHE      N/A     51  49  92 CALM      30.26S
MOBERLY        CLEAR     52  46  82 CALM      30.24S
KIRKSVILLE     CLEAR     48  46  93 NW3       30.24S

$$

MOZ041-047>049-056>058-063>065-088>090-097-220900-
...EASTERN AND SOUTHERN MISSOURI...

CITY           SKY/WX    TMP DP  RH WIND       PRES   REMARKS
ST. LOUIS INTL CLEAR     57  51  80 NW6       30.19S
SPIRIT OF STL  CLEAR     53  50  89 SW3       30.19R
COLUMBIA       CLEAR     52  50  93 NW5       30.23S
JEFFERSON CITY CLEAR     53  49  86 NW5       30.23R
MEXICO         CLEAR    N/A N/A N/A NW3       30.22S
HANNIBAL       CLEAR     54  50  87 CALM      30.21F
ROLLA          CLEAR     50  47  89 CALM      30.20S
LEBANON        CLEAR     54  48  82 N5        30.23S
OSAGE BEACH    CLEAR     54  48  82 CALM      30.23S
SPRINGFIELD    CLEAR     55  49  80 CALM      30.22S
BRANSON        CLEAR     52  48  87 N3        30.22F
NEVADA         CLEAR     52  50  93 N3        30.25F
JOPLIN         CLEAR     54  51  90 NE3       30.24S
WEST PLAINS    CLEAR     54  48  80 N6        30.22R

$$

IAZ060-094-KSZ022-034>040-054-083-096-NEZ052-066-093-220900-
...KANSAS...SOUTHEAST NEBRASKA AND IOWA...

CITY           SKY/WX    TMP DP  RH WIND       PRES   REMARKS
TOPEKA         CLEAR     52  49  89 CALM      30.28R
MANHATTAN      CLEAR     48  46  93 CALM      30.28F
EMPORIA        CLEAR     54  49  83 N3        30.27F
CHANUTE        CLEAR     54  50  86 N3        30.26S
WICHITA        PTCLDY    60  46  59 E7        30.26S
OMAHA          CLEAR     51  49  92 CALM      30.30R
LINCOLN        CLEAR     48  45  89 N5        30.30S
FALLS CITY     CLEAR     50  48  93 W5        30.28S
LAMONI         CLEAR     50  47  89 NW5       30.26S
DES MOINES     CLEAR     52  47  83 N3        30.26S

$$



USA.gov is the U.S. government's official web portal to all federal, state and local government web resources and services.